Location: ????
(33.1659°N, 35.6604°E)
Time: 22:35:02
(UTC+00:00)

H-2A R/B - Pass Details

Date: 20 September 2019
Orbit: 734 x 836 km, 98.3° (Epoch: 13 October)

Event Time Altitude Azimuth Distance (km) Brightness Sun altitude
Exits shadow 16:21:26 10° 75° (ENE) 2,228 3.8 -10.0°
Maximum altitude 16:22:21 11° 64° (ENE) 2,198 3.9 -10.2°
Drops below altitude 10° 16:23:34 10° 49° (NE) 2,264 4.1 -10.4°
Sets 16:27:49 0° 14° (NNE) 3,216 5.2 -11.3°
